TimeGMT,TemperatureF,Dew PointF,Humidity,Sea Level PressureIn,VisibilityMPH,Wind Direction,Wind SpeedMPH,Gust SpeedMPH,PrecipitationIn,Events,Conditions,WindDirDegrees,DateUTC
12:00 AM,52,52,99,29.82,,South,11.2,,,,,190,2013-11-11 00:00:00
6:00 AM,53,53,100,29.88,0,WSW,15.7,,,Rain,Light Rain,250,2013-11-11 06:00:00
6:00 AM,53.6,53.6,100,29.86,0.4,WSW,15.0,-,N/A,Fog-Rain,Light Rain,250,2013-11-11 06:00:00
6:30 AM,53.6,53.6,100,29.86,0.5,WSW,18.4,-,N/A,Fog-Rain,Light Rain,250,2013-11-11 06:30:00
7:00 AM,51.8,51.8,100,29.89,0.5,WSW,11.5,-,N/A,Fog-Rain,Light Rain,250,2013-11-11 07:00:00
7:30 AM,51.8,51.8,100,29.89,0.4,WSW,9.2,-,N/A,Fog,Light Drizzle,250,2013-11-11 07:30:00
8:00 AM,51.8,51.8,100,29.92,0.4,WSW,10.4,-,N/A,Fog,Light Drizzle,250,2013-11-11 08:00:00
8:30 AM,50.0,50.0,100,29.95,4.3,West,13.8,-,N/A,,Light Drizzle,270,2013-11-11 08:30:00
9:00 AM,50.0,50.0,100,29.98,6.2,West,5.8,-,N/A,,Mostly Cloudy,270,2013-11-11 09:00:00
9:30 AM,50.0,48.2,94,29.98,6.2,WSW,6.9,-,N/A,,Mostly Cloudy,250,2013-11-11 09:30:00
10:00 AM,48.2,48.2,100,30.01,6.2,WSW,5.8,-,N/A,,Mostly Cloudy,240,2013-11-11 10:00:00
10:30 AM,48.2,48.2,100,30.01,6.2,SSW,4.6,-,N/A,,Mostly Cloudy,210,2013-11-11 10:30:00
11:00 AM,50.0,48.2,94,30.01,6.2,WSW,6.9,-,N/A,,Scattered Clouds,240,2013-11-11 11:00:00
11:30 AM,50.0,48.2,94,30.04,6.2,WSW,11.5,-,N/A,,Partly Cloudy,250,2013-11-11 11:30:00
12:00 PM,51,48,85,30.05,19,WSW,13.4,,,,Partly Cloudy,250,2013-11-11 12:00:00
12:00 PM,51.8,48.2,88,30.04,6.2,WSW,12.7,-,N/A,,Mostly Cloudy,250,2013-11-11 12:00:00
12:30 PM,51.8,48.2,88,30.04,6.2,West,13.8,-,N/A,,Mostly Cloudy,260,2013-11-11 12:30:00
1:00 PM,51.8,46.4,82,30.04,6.2,WSW,12.7,-,N/A,,Mostly Cloudy,250,2013-11-11 13:00:00
1:30 PM,51.8,46.4,82,30.04,6.2,WSW,11.5,-,N/A,,Mostly Cloudy,240,2013-11-11 13:30:00
2:00 PM,50.0,46.4,87,30.06,6.2,SW,11.5,-,N/A,,Mostly Cloudy,230,2013-11-11 14:00:00
2:30 PM,50.0,46.4,87,30.06,6.2,SW,8.1,-,N/A,,Mostly Cloudy,220,2013-11-11 14:30:00
3:00 PM,51.8,46.4,82,30.06,6.2,SW,9.2,-,N/A,,Mostly Cloudy,230,2013-11-11 15:00:00
3:30 PM,50.0,44.6,82,30.06,6.2,WSW,10.4,-,N/A,,Mostly Cloudy,240,2013-11-11 15:30:00
4:00 PM,48.2,44.6,87,30.06,6.2,WSW,5.8,-,N/A,,Mostly Cloudy,240,2013-11-11 16:00:00
4:30 PM,48.2,44.6,87,30.06,6.2,WSW,6.9,-,N/A,,Mostly Cloudy,240,2013-11-11 16:30:00
5:00 PM,48.2,44.6,87,30.06,6.2,SW,10.4,-,N/A,,Mostly Cloudy,230,2013-11-11 17:00:00
6:00 PM,47,45,89,30.12,12,WSW,11.2,,,,Partly Cloudy,240,2013-11-11 18:00:00
6:00 PM,48.2,44.6,87,30.09,6.2,WSW,11.5,-,N/A,,Mostly Cloudy,240,2013-11-11 18:00:00
7:00 PM,46.4,44.6,93,30.09,6.2,SW,9.2,-,N/A,,Mostly Cloudy,230,2013-11-11 19:00:00